Wind_Speed
30 32 34 35 36 36 36 36 35 34 34 34 35 35 36 36 37 37 38 38 39 40 41 42 42 43 43 43 43 43 43 42 41 42 39 37 36 34 33 34 34 34 34
33 35 35 35 35 35 35 34 33 32 34 35 35 36 36 37 38 39 39 39 39 39 40 41 41 41 40 40 40 40 40 39 39 40 38 36 34 33 34 34 34 34 34
36 36 34 32 31 32 33 32 32 33 34 34 34 34 35 36 37 38 39 40 40 40 40 40 40 40 39 38 37 37 37 36 36 37 37 36 33 33 33 34 34 34 34
34 32 30 28 29 30 31 31 32 32 31 31 31 31 32 33 35 37 38 39 40 41 41 41 41 41 41 40 38 37 36 35 34 35 36 37 35 34 33 34 35 36 36
27 25 24 25 27 28 29 30 30 29 28 26 26 27 29 31 33 35 37 38 39 40 40 41 42 42 42 42 41 39 38 37 36 36 37 37 37 36 36 34 35 37 37
22 22 23 24 26 27 28 28 27 26 24 24 24 26 28 30 32 34 35 36 38 38 39 40 41 42 43 43 43 42 41 40 39 38 38 39 38 38 38 38 36 37 37
22 22 23 23 24 25 26 25 25 25 25 26 27 29 30 32 32 34 35 36 36 37 38 38 39 41 42 43 44 43 42 41 41 40 40 40 40 40 40 39 38 38 38
22 22 23 23 24 25 25 26 27 29 30 31 32 33 34 35 35 35 36 37 37 37 37 37 37 38 40 41 43 43 43 42 42 42 42 41 41 40 40 39 39 38 37
21 22 24 25 27 28 29 30 31 33 34 36 36 37 37 38 37 37 37 38 38 38 37 36 36 36 37 38 39 40 41 41 41 41 41 41 41 40 39 38 38 36 35
25 26 28 29 31 33 34 35 36 37 38 39 39 39 39 39 39 38 38 39 39 39 37 36 35 34 34 34 35 36 37 38 38 39 39 39 38 37 36 35 33 32 31
30 31 33 34 36 38 39 40 40 40 40 41 40 40 41 41 40 40 39 39 39 39 37 36 34 32 32 31 31 32 33 34 35 35 35 34 33 31 29 27 26 26 26
35 36 38 40 42 43 44 45 45 45 45 45 44 43 42 42 41 40 39 39 39 38 37 36 34 32 30 29 28 28 28 29 29 30 30 29 28 26 25 24 24 25 25
41 42 44 46 48 49 50 51 51 50 50 49 47 45 44 43 42 41 40 39 39 38 37 35 34 31 29 27 25 24 25 25 24 25 25 24 23 23 22 23 25 25 24
47 49 51 53 54 55 55 56 56 55 54 53 51 49 47 45 44 42 41 40 39 38 36 35 33 30 28 26 24 22 21 21 22 22 22 22 23 22 23 24 24 24 23
52 55 57 59 60 60 60 61 60 59 58 57 56 54 52 49 47 45 42 41 39 37 35 34 31 28 26 24 21 20 19 19 20 21 22 22 23 21 21 22 22 22 21
57 60 62 63 64 64 65 65 64 63 62 61 61 60 57 54 50 47 44 42 40 37 34 32 29 26 24 22 20 19 17 16 17 19 21 22 22 21 21 21 21 21 20
63 64 66 66 68 69 70 70 69 69 69 68 67 65 62 59 55 50 47 43 40 36 33 31 28 25 22 21 18 16 15 15 15 16 18 21 21 21 21 19 19 18 16
68 70 72 73 75 76 77 76 76 76 75 74 72 70 67 63 59 53 48 44 40 36 32 30 27 24 21 20 18 15 13 12 12 13 16 18 19 20 20 18 17 15 13
75 77 79 80 81 81 82 82 81 79 78 76 73 71 68 64 60 55 49 45 41 37 32 29 26 23 20 19 17 14 12 10 10 12 13 14 15 17 17 16 14 12 11
81 82 83 83 83 82 81 79 76 73 70 66 63 60 59 58 55 53 50 46 42 38 34 29 26 23 20 18 16 14 12 10 10 11 12 12 13 14 14 13 12 11 10
79 78 76 74 72 70 67 64 60 56 53 50 48 46 46 48 49 49 49 46 43 39 35 30 27 23 20 17 15 13 12 11 11 11 12 13 13 13 13 13 12 11 11
65 62 60 57 54 52 50 46 43 40 39 38 38 39 40 41 42 45 48 47 43 40 35 31 28 24 20 17 15 14 13 12 12 12 13 14 14 14 13 13 12 11 10
51 48 46 43 41 41 40 38 37 37 37 36 36 37 38 37 37 42 46 47 44 40 36 32 29 25 22 19 17 15 14 13 13 14 14 14 14 13 13 12 11 10 9
43 42 42 41 40 40 41 41 40 40 40 38 36 36 34 33 34 41 46 46 44 41 37 33 29 26 22 19 18 17 17 16 16 15 15 14 14 13 13 12 11 10 9
43 43 43 43 42 42 42 43 43 43 41 38 36 35 33 31 32 39 45 46 43 41 37 33 30 26 23 21 20 20 19 19 18 16 15 15 14 14 13 12 11 9 9
45 46 46 46 47 47 46 45 44 43 41 38 35 32 30 29 30 36 41 44 42 40 38 35 32 29 27 25 23 22 21 20 18 17 16 15 14 13 12 11 10 9 9
Wind_Direction
285 291 294 296 297 297 297 296 297 300 302 304 305 305 303 301 298 296 293 290 287 284 282 280 278 277 276 275 274 275 275 276 276 275 275 274 273 270 269 269 269 268 267
285 289 292 293 294 295 296 297 299 303 305 306 307 306 305 303 301 299 296 292 288 285 282 281 279 279 278 276 275 274 273 273 273 274 272 271 272 272 270 269 268 267 267
286 288 288 288 289 291 295 298 302 305 306 307 306 307 306 306 304 302 299 295 290 286 282 279 278 277 276 275 274 274 273 271 270 271 271 272 272 269 269 269 269 268 268
284 284 283 282 286 290 293 297 302 304 305 307 308 310 311 311 310 308 304 299 294 289 283 280 277 275 274 273 273 272 272 270 269 269 270 271 270 269 268 268 269 269 269
277 276 276 280 286 289 292 295 298 299 302 306 310 314 316 316 316 314 311 306 300 295 288 282 278 275 273 272 272 272 271 270 269 269 269 270 270 270 270 269 268 268 269
271 273 277 281 284 285 287 290 291 294 300 305 312 316 318 319 320 320 317 312 306 300 295 288 281 277 274 272 271 270 270 270 270 270 270 270 269 269 270 271 269 267 267
273 275 277 278 279 280 281 283 287 293 301 307 312 315 316 318 320 321 321 318 312 306 300 293 286 280 276 272 271 270 269 269 269 269 270 270 270 270 270 270 270 267 266
276 274 271 272 274 277 280 285 293 300 306 310 313 315 316 317 318 320 321 320 317 312 305 297 290 285 280 275 271 270 268 268 268 268 269 270 270 270 269 269 268 267 266
276 274 274 276 280 284 289 294 299 303 306 309 311 312 313 314 316 317 319 320 319 317 311 304 297 290 284 278 273 270 268 267 266 267 268 269 269 269 268 268 267 265 264
283 281 283 286 289 293 296 299 302 304 305 306 307 308 309 310 313 315 316 318 319 318 315 310 304 297 291 284 278 272 268 266 265 265 266 267 268 268 267 267 264 260 257
287 287 290 292 294 296 299 300 301 302 303 303 304 305 306 308 310 311 314 315 317 318 316 313 308 302 297 291 284 275 270 267 265 265 265 265 265 263 263 261 255 249 247
288 290 292 294 295 297 298 299 300 301 301 302 303 303 304 305 307 308 310 312 315 317 316 314 311 307 303 297 290 281 275 270 266 263 262 261 260 258 255 250 243 240 239
289 290 292 293 294 294 295 296 297 298 298 299 301 301 302 302 303 305 307 309 311 314 315 314 312 309 306 302 295 287 279 271 265 261 256 256 252 248 241 237 233 233 232
289 289 290 290 290 291 291 292 293 294 295 296 297 298 298 299 300 302 303 304 307 310 311 312 311 309 307 304 299 290 279 269 262 256 251 246 240 237 231 228 222 222 221
286 287 287 287 287 287 288 289 289 290 291 293 293 294 295 295 295 296 297 299 302 305 307 308 308 307 307 305 300 289 277 264 254 244 238 233 228 220 218 217 214 213 213
286 285 285 285 284 284 284 284 284 285 286 288 288 289 289 290 290 290 290 292 295 297 300 302 304 303 303 303 298 286 276 259 244 233 228 223 215 210 210 208 208 210 210
286 284 283 283 282 281 281 281 282 283 284 285 285 284 284 284 283 282 282 283 286 288 291 294 296 297 296 296 295 286 273 260 247 240 230 220 213 209 207 204 203 200 201
287 285 283 282 282 282 282 282 282 282 282 282 281 281 280 279 277 275 274 274 275 278 282 284 286 288 287 289 289 283 271 258 247 239 231 224 217 210 201 197 196 195 195
288 287 286 285 285 284 283 283 283 282 281 281 280 279 277 275 272 268 264 264 265 267 270 272 274 277 278 280 278 272 261 252 243 230 222 214 207 197 191 188 188 189 192
289 288 288 287 287 286 285 285 284 283 283 282 281 278 275 270 266 260 254 253 254 256 259 260 262 264 267 271 270 258 249 240 226 213 204 197 192 186 182 181 184 189 192
294 293 292 291 290 289 288 287 285 284 282 280 278 277 274 269 260 250 242 242 243 246 249 249 250 251 255 260 258 246 233 221 210 201 194 190 187 184 181 183 185 187 189
298 297 296 296 295 294 292 290 287 283 280 279 278 278 276 272 260 243 232 232 235 238 239 239 239 239 242 246 245 231 216 207 198 192 188 184 182 182 182 182 184 187 192
304 302 301 300 298 295 293 292 289 285 284 284 283 283 279 273 256 236 225 224 228 230 231 230 229 230 233 235 231 220 209 200 191 185 182 181 182 184 185 187 190 194 199
308 306 303 301 298 294 291 290 287 285 285 284 283 283 279 270 253 232 220 219 220 222 226 222 220 221 223 223 217 207 199 191 186 184 184 186 189 191 192 194 197 202 208
310 307 304 302 299 296 292 289 286 284 283 282 282 280 274 266 251 231 219 213 212 214 215 211 211 213 214 213 206 198 194 190 188 188 189 192 194 196 198 202 206 211 216
312 309 305 302 299 296 293 290 286 283 281 280 279 274 266 258 243 226 214 207 204 202 202 200 202 207 208 207 201 195 191 190 189 190 192 195 197 199 202 206 212 218 221
Height
5870 5869 5866 5864 5862 5860 5857 5855 5853 5850 5848 5845 5842 5840 5837 5835 5832 5830 5828 5825 5823 5821 5819 5818 5816 5815 5815 5814 5813 5812 5811 5811 5810 5809 5809 5810 5810 5810 5811 5811 5812 5813 5813
5864 5863 5860 5858 5856 5853 5851 5848 5846 5844 5841 5838 5835 5833 5830 5827 5824 5821 5818 5816 5814 5811 5809 5808 5806 5805 5804 5804 5803 5802 5801 5801 5800 5799 5799 5800 5802 5802 5802 5802 5802 5803 5804
5858 5856 5855 5852 5850 5847 5845 5842 5840 5837 5834 5832 5829 5826 5823 5819 5816 5812 5809 5806 5803 5801 5799 5797 5796 5795 5794 5793 5793 5792 5791 5791 5791 5790 5789 5790 5792 5793 5793 5793 5793 5793 5794
5852 5851 5849 5847 5844 5842 5839 5836 5834 5831 5828 5826 5823 5819 5816 5812 5808 5804 5800 5796 5792 5790 5788 5786 5785 5784 5783 5782 5782 5781 5781 5781 5781 5781 5780 5780 5781 5782 5784 5784 5783 5783 5783
5847 5845 5842 5841 5839 5836 5833 5831 5828 5826 5823 5820 5817 5814 5810 5806 5802 5797 5792 5787 5783 5779 5776 5775 5773 5772 5771 5770 5770 5770 5770 5770 5770 5770 5770 5770 5770 5771 5773 5774 5774 5773 5773
5841 5839 5837 5835 5833 5830 5828 5825 5823 5820 5818 5815 5811 5807 5804 5800 5795 5790 5785 5779 5774 5769 5766 5763 5761 5760 5758 5758 5758 5758 5758 5758 5758 5759 5759 5759 5759 5760 5761 5762 5764 5763 5763
5836 5834 5832 5829 5827 5824 5822 5819 5817 5814 5811 5807 5804 5800 5796 5792 5788 5783 5778 5772 5767 5762 5757 5753 5750 5748 5746 5745 5745 5745 5746 5746 5747 5747 5747 5747 5748 5749 5750 5750 5752 5753 5753
5830 5827 5825 5822 5820 5817 5815 5812 5809 5805 5801 5798 5795 5791 5788 5784 5779 5775 5770 5765 5759 5754 5749 5744 5740 5737 5734 5733 5732 5732 5733 5734 5734 5735 5735 5736 5736 5737 5738 5739 5740 5741 5742
5823 5820 5817 5814 5811 5809 5805 5802 5799 5795 5792 5788 5785 5782 5779 5775 5771 5767 5762 5757 5751 5745 5740 5735 5731 5727 5724 5722 5720 5720 5721 5721 5722 5722 5723 5723 5724 5724 5726 5727 5728 5730 5731
5814 5811 5808 5805 5801 5798 5795 5792 5788 5785 5782 5779 5776 5773 5769 5766 5762 5758 5754 5749 5743 5737 5731 5726 5722 5718 5714 5711 5710 5709 5709 5709 5710 5710 5711 5712 5712 5713 5714 5716 5717 5719 5721
5804 5801 5797 5794 5791 5788 5784 5781 5778 5775 5772 5769 5766 5763 5759 5756 5753 5750 5746 5741 5735 5730 5724 5719 5714 5710 5706 5703 5700 5699 5698 5698 5698 5699 5700 5701 5702 5703 5705 5706 5708 5710 5713
5794 5790 5787 5783 5780 5777 5774 5770 5767 5765 5762 5759 5756 5753 5750 5747 5744 5741 5737 5733 5728 5722 5717 5712 5707 5702 5698 5695 5692 5690 5689 5689 5689 5689 5690 5691 5693 5694 5696 5698 5700 5703 5706
5784 5780 5776 5772 5769 5766 5762 5759 5756 5753 5750 5748 5745 5742 5739 5736 5734 5731 5728 5724 5720 5715 5710 5705 5700 5696 5692 5688 5685 5683 5681 5680 5681 5681 5682 5683 5685 5687 5690 5692 5693 5696 5699
5772 5768 5764 5760 5756 5753 5749 5746 5743 5740 5737 5735 5733 5731 5728 5726 5724 5721 5719 5715 5712 5708 5703 5699 5694 5690 5686 5682 5679 5677 5675 5674 5674 5675 5676 5677 5680 5681 5684 5686 5688 5690 5693
5759 5755 5750 5746 5742 5738 5735 5731 5728 5725 5722 5720 5718 5717 5716 5714 5713 5711 5709 5706 5704 5700 5697 5692 5688 5685 5681 5678 5675 5672 5670 5669 5669 5669 5671 5673 5674 5676 5679 5681 5683 5686 5689
5745 5740 5735 5730 5725 5721 5718 5715 5712 5709 5706 5704 5702 5701 5700 5700 5700 5699 5698 5696 5695 5692 5689 5686 5683 5679 5676 5673 5671 5668 5667 5665 5665 5666 5667 5669 5670 5672 5675 5678 5680 5683 5686
5728 5723 5717 5712 5707 5703 5698 5695 5692 5690 5687 5685 5684 5683 5683 5683 5684 5685 5685 5685 5684 5683 5681 5679 5676 5674 5672 5669 5667 5665 5664 5663 5662 5663 5664 5666 5667 5670 5672 5674 5677 5680 5683
5709 5703 5697 5691 5686 5681 5676 5672 5670 5667 5665 5663 5662 5661 5662 5664 5666 5668 5670 5672 5672 5673 5672 5671 5670 5668 5666 5665 5663 5662 5661 5660 5660 5660 5662 5664 5665 5667 5670 5672 5675 5678 5681
5687 5679 5672 5666 5660 5655 5650 5647 5645 5641 5639 5638 5637 5637 5638 5641 5645 5649 5653 5656 5659 5660 5661 5662 5662 5661 5660 5660 5659 5658 5657 5657 5657 5658 5660 5661 5663 5665 5668 5670 5673 5676 5679
5662 5653 5645 5639 5633 5627 5621 5619 5618 5615 5613 5612 5612 5612 5613 5616 5622 5628 5634 5639 5644 5647 5650 5652 5653 5654 5654 5654 5654 5654 5654 5654 5655 5656 5658 5660 5662 5664 5666 5669 5672 5675 5678
5634 5625 5618 5612 5607 5601 5597 5595 5594 5592 5591 5591 5591 5591 5592 5594 5599 5605 5614 5621 5627 5633 5638 5641 5644 5646 5647 5648 5649 5649 5650 5651 5652 5654 5656 5658 5661 5663 5666 5668 5671 5674 5676
5609 5601 5594 5590 5585 5580 5576 5575 5574 5573 5573 5574 5573 5573 5574 5575 5578 5585 5594 5603 5611 5619 5625 5630 5634 5638 5640 5642 5644 5645 5647 5648 5649 5651 5654 5656 5659 5662 5665 5667 5670 5672 5675
5592 5586 5580 5576 5572 5568 5564 5562 5561 5559 5559 5559 5558 5557 5557 5557 5560 5567 5576 5587 5596 5605 5613 5620 5625 5629 5633 5636 5638 5641 5643 5644 5647 5649 5652 5655 5658 5661 5664 5666 5668 5671 5673
5580 5574 5568 5564 5560 5556 5552 5549 5547 5546 5545 5545 5544 5543 5542 5543 5545 5551 5560 5571 5581 5592 5602 5609 5616 5621 5626 5630 5633 5636 5639 5641 5644 5647 5650 5654 5657 5660 5662 5665 5667 5669 5671
5569 5563 5556 5551 5547 5542 5538 5535 5532 5531 5530 5530 5530 5529 5529 5529 5531 5537 5546 5556 5569 5581 5592 5601 5608 5614 5620 5624 5629 5632 5635 5638 5641 5645 5648 5651 5655 5658 5660 5662 5665 5666 5668
5558 5550 5543 5537 5532 5527 5523 5519 5516 5514 5514 5515 5515 5515 5516 5518 5520 5525 5535 5546 5558 5570 5581 5591 5600 5607 5613 5618 5624 5628 5632 5636 5639 5642 5645 5649 5652 5655 5658 5660 5662 5664 5665